Probability
6 26 52 52 52 52 48 48 48 52 52 55 61 61 61 58 55 48 61 61 61 65 68 68 61 65 61 55 55 52 52 58 58 65 68 68 74 71 74 77 61 65 71
3 29 48 55 55 55 48 48 48 52 52 52 52 52 55 55 55 55 58 61 65 52 61 61 55 58 52 45 52 48 48 58 58 52 58 65 65 65 65 68 68 55 68
19 29 39 55 52 55 52 55 55 52 52 48 45 42 42 45 48 48 52 55 55 55 48 55 55 52 48 45 45 48 48 48 52 48 45 26 58 61 58 58 55 65 61
13 29 32 55 52 45 48 48 55 52 52 45 45 45 45 45 42 45 42 42 39 32 35 42 42 45 42 45 42 48 52 48 45 42 13 23 26 55 58 58 52 58 65
19 26 42 55 45 45 48 48 52 55 48 42 45 45 42 39 39 39 35 35 26 26 29 35 32 26 32 35 55 48 52 45 35 26 3 13 16 48 52 55 55 58 61
13 26 39 48 39 39 39 45 42 35 39 39 35 32 32 32 29 32 35 26 26 26 23 23 29 26 19 29 42 52 42 32 23 0 3 10 23 45 48 52 55 48 45
13 29 39 48 42 42 39 45 45 42 39 35 29 29 29 32 29 29 23 19 19 16 16 19 26 19 23 29 35 39 39 19 3 0 0 0 23 42 39 45 39 42 48
19 26 39 42 42 45 45 48 45 39 39 32 29 35 29 26 26 16 16 19 19 19 19 23 23 19 19 26 32 26 16 13 3 0 0 0 29 39 32 29 29 35 35
19 19 23 29 32 42 45 45 35 35 39 35 26 26 26 32 19 23 19 23 19 19 19 23 23 26 29 32 32 23 16 13 3 0 0 3 29 29 19 23 29 32 39
10 13 16 16 16 16 32 42 39 35 35 35 35 29 23 19 19 19 23 19 16 19 16 23 16 26 32 32 29 23 13 10 3 0 0 6 29 23 23 23 23 29 32
6 10 10 13 13 13 13 29 32 35 32 26 23 19 13 6 6 10 16 19 19 16 16 16 19 23 16 19 19 13 10 3 0 0 3 23 26 23 23 23 26 32 32
6 10 10 6 10 10 10 10 10 13 10 6 6 6 6 3 3 6 10 16 16 19 13 16 16 13 3 3 3 6 6 3 3 3 6 26 26 23 29 29 29 32 29
6 6 10 10 6 6 3 3 0 3 3 3 6 3 0 0 0 6 6 6 10 10 3 6 3 3 0 0 0 0 0 3 3 3 3 26 19 26 26 26 29 26 16
3 6 10 6 6 3 3 3 0 0 0 0 0 0 0 0 0 3 0 0 0 0 0 0 0 3 3 3 3 0 0 0 0 0 0 26 26 19 16 23 29 19 13
0 3 3 3 3 0 0 0 0 0 0 0 0 0 0 0 0 0 0 0 0 0 0 0 0 0 0 3 3 0 0 0 0 0 0 29 26 16 19 13 13 13 16
3 3 3 3 3 0 0 0 0 0 0 0 0 0 0 0 0 0 0 0 0 0 0 0 0 0 0 0 0 0 0 0 0 0 0 6 16 16 13 13 13 13 10
3 3 3 3 3 3 0 0 0 0 0 0 0 0 0 0 0 0 0 0 0 0 0 0 0 0 0 0 0 0 0 0 0 0 0 0 0 6 16 13 10 13 13
3 3 3 3 3 0 0 0 0 0 3 0 0 0 0 0 0 0 0 0 0 0 0 0 0 0 0 0 0 0 0 0 0 0 0 0 0 0 3 13 13 13 13
3 0 3 3 0 0 0 3 3 3 3 0 0 0 0 0 0 0 0 0 0 0 0 0 0 0 0 0 0 0 0 0 0 0 0 0 0 0 3 3 10 13 13
0 0 0 0 0 3 0 3 3 3 3 0 0 0 0 0 0 0 0 0 0 0 0 0 0 0 0 0 0 0 0 0 0 0 0 0 0 0 0 3 3 3 6
0 0 0 0 0 0 3 3 3 3 3 0 0 0 0 0 0 0 0 0 0 0 0 0 0 0 0 0 0 0 0 0 0 0 0 0 0 0 0 3 3 3 3
0 3 0 0 0 0 0 3 3 3 3 0 0 0 0 0 0 0 0 0 0 0 0 0 0 0 0 0 0 0 0 0 0 0 0 0 0 0 3 3 3 0 0
0 0 0 0 0 0 0 3 0 0 0 0 0 0 0 0 0 0 0 0 0 0 0 0 0 0 0 0 0 0 0 0 0 0 0 0 0 0 0 3 3 0 0
3 3 0 0 0 0 0 0 0 0 0 0 0 3 0 0 0 0 0 0 0 0 0 0 0 0 0 0 0 0 0 0 0 0 0 0 0 0 0 3 3 3 0
3 3 3 0 0 0 0 0 0 0 0 0 0 3 3 0 0 0 0 0 0 0 0 0 0 0 0 0 0 0 0 0 0 0 0 0 0 0 0 0 0 3 0
3 3 0 0 0 0 0 0 0 0 0 0 0 3 3 3 0 0 0 0 0 0 0 0 0 0 0 0 0 0 0 0 0 0 0 0 0 0 0 0 0 0 0
Height
5876 5876 5876 5877 5877 5877 5878 5878 5878 5879 5879 5879 5879 5879 5879 5878 5878 5878 5878 5877 5877 5877 5876 5875 5874 5874 5874 5875 5876 5876 5877 5876 5876 5876 5875 5874 5873 5872 5871 5871 5871 5871 5871
5876 5876 5876 5876 5877 5877 5877 5878 5878 5878 5878 5879 5879 5879 5878 5878 5878 5878 5878 5877 5876 5875 5875 5874 5871 5870 5872 5874 5875 5876 5876 5876 5875 5875 5874 5874 5873 5872 5871 5871 5871 5871 5871
5875 5876 5876 5876 5876 5877 5877 5877 5877 5878 5878 5878 5878 5878 5878 5877 5877 5877 5876 5876 5875 5875 5874 5872 5870 5870 5872 5873 5874 5875 5875 5875 5874 5874 5874 5873 5872 5872 5871 5871 5871 5870 5870
5875 5875 5875 5876 5876 5876 5877 5877 5877 5877 5877 5877 5877 5877 5877 5877 5876 5876 5875 5875 5875 5874 5873 5873 5872 5872 5872 5873 5873 5874 5874 5873 5873 5873 5873 5872 5872 5871 5870 5870 5870 5869 5869
5874 5875 5875 5875 5875 5876 5876 5876 5876 5877 5877 5876 5876 5876 5876 5876 5875 5875 5875 5874 5874 5873 5873 5872 5872 5872 5872 5872 5872 5872 5872 5872 5872 5872 5871 5871 5870 5870 5869 5869 5869 5868 5868
5873 5874 5874 5874 5874 5875 5875 5875 5875 5875 5875 5875 5875 5875 5875 5874 5874 5874 5873 5873 5873 5872 5872 5872 5871 5871 5871 5871 5871 5871 5870 5870 5870 5870 5870 5869 5869 5868 5868 5867 5867 5867 5866
5872 5873 5873 5873 5873 5874 5874 5874 5874 5874 5874 5874 5874 5873 5873 5872 5872 5872 5872 5871 5871 5871 5871 5870 5870 5870 5870 5869 5869 5869 5869 5868 5868 5868 5868 5867 5867 5866 5866 5865 5865 5865 5864
5871 5872 5872 5872 5872 5873 5873 5873 5873 5873 5873 5872 5872 5872 5871 5871 5870 5870 5870 5870 5870 5869 5869 5869 5868 5868 5868 5868 5867 5867 5867 5866 5866 5866 5865 5865 5865 5864 5864 5863 5863 5863 5862
5871 5871 5871 5871 5871 5871 5872 5872 5872 5872 5871 5871 5871 5870 5869 5869 5869 5868 5868 5868 5868 5867 5867 5867 5866 5866 5866 5866 5865 5864 5864 5864 5863 5863 5863 5863 5862 5862 5862 5861 5861 5860 5860
5870 5870 5870 5870 5870 5870 5870 5870 5870 5870 5870 5869 5869 5868 5868 5868 5867 5867 5866 5866 5866 5865 5865 5864 5864 5864 5863 5863 5863 5862 5862 5861 5861 5861 5860 5860 5860 5860 5859 5859 5858 5858 5858
5869 5869 5869 5869 5869 5869 5869 5869 5869 5869 5868 5868 5867 5867 5866 5866 5865 5865 5864 5864 5863 5863 5863 5862 5861 5861 5861 5861 5860 5860 5859 5859 5858 5858 5858 5857 5857 5857 5856 5856 5856 5856 5856
5868 5868 5868 5868 5868 5868 5868 5868 5867 5867 5866 5866 5865 5865 5865 5864 5863 5863 5862 5862 5861 5860 5860 5859 5859 5858 5858 5858 5857 5857 5856 5856 5856 5855 5855 5854 5854 5854 5853 5853 5853 5853 5853
5866 5866 5867 5867 5867 5866 5866 5866 5866 5865 5865 5864 5864 5863 5863 5862 5861 5861 5860 5859 5858 5858 5857 5857 5856 5856 5855 5855 5854 5854 5853 5853 5853 5852 5851 5851 5851 5850 5850 5850 5850 5850 5850
5865 5865 5865 5865 5865 5865 5865 5864 5864 5863 5863 5862 5862 5861 5861 5860 5859 5858 5858 5857 5856 5855 5855 5854 5854 5853 5852 5852 5851 5851 5850 5850 5849 5849 5848 5848 5847 5847 5847 5846 5846 5846 5847
5862 5862 5862 5863 5863 5863 5862 5862 5862 5861 5861 5860 5860 5859 5858 5857 5857 5856 5855 5854 5853 5852 5852 5851 5851 5850 5849 5849 5848 5848 5847 5846 5846 5845 5845 5844 5844 5844 5843 5843 5843 5843 5843
5860 5860 5860 5860 5860 5860 5860 5860 5859 5859 5858 5858 5857 5856 5856 5855 5854 5853 5852 5851 5850 5849 5849 5848 5847 5846 5846 5845 5844 5844 5844 5843 5842 5842 5842 5841 5841 5840 5840 5840 5840 5840 5840
5858 5858 5858 5858 5857 5857 5857 5857 5856 5856 5856 5855 5854 5853 5852 5852 5851 5850 5849 5848 5847 5846 5845 5844 5843 5843 5842 5841 5841 5840 5840 5839 5839 5838 5838 5838 5837 5837 5836 5836 5836 5836 5836
5855 5855 5856 5855 5855 5855 5854 5854 5854 5853 5853 5852 5852 5851 5850 5849 5848 5847 5846 5845 5844 5842 5841 5841 5839 5839 5838 5838 5837 5836 5836 5836 5835 5835 5834 5834 5833 5833 5833 5832 5832 5832 5832
5853 5853 5853 5853 5852 5852 5852 5852 5851 5851 5850 5849 5849 5848 5847 5845 5845 5844 5843 5841 5840 5839 5838 5837 5836 5835 5834 5833 5833 5832 5832 5832 5831 5831 5830 5830 5829 5829 5829 5828 5828 5828 5828
5850 5850 5850 5850 5850 5850 5849 5849 5848 5848 5847 5847 5846 5844 5843 5842 5841 5840 5839 5838 5837 5835 5834 5832 5831 5830 5829 5829 5829 5828 5828 5827 5827 5827 5826 5825 5825 5825 5824 5824 5824 5824 5824
5847 5847 5847 5847 5847 5847 5846 5846 5846 5845 5844 5843 5842 5841 5840 5839 5838 5836 5835 5834 5832 5831 5829 5828 5826 5825 5824 5824 5824 5823 5823 5823 5822 5822 5821 5821 5821 5820 5820 5820 5820 5820 5820
5844 5843 5843 5844 5844 5844 5843 5843 5843 5842 5841 5840 5839 5838 5836 5835 5833 5832 5830 5829 5827 5826 5824 5822 5821 5820 5819 5819 5819 5818 5818 5818 5817 5817 5817 5816 5816 5816 5816 5816 5816 5816 5816
5840 5840 5840 5840 5840 5840 5840 5839 5839 5838 5837 5836 5835 5833 5832 5831 5829 5827 5825 5824 5822 5820 5818 5816 5815 5814 5814 5813 5813 5813 5813 5813 5812 5812 5812 5812 5812 5812 5811 5811 5811 5811 5811
5837 5837 5836 5837 5837 5837 5836 5836 5835 5834 5833 5832 5831 5829 5827 5826 5824 5822 5820 5818 5816 5814 5812 5810 5809 5808 5808 5807 5807 5807 5807 5807 5807 5806 5806 5806 5806 5807 5807 5807 5807 5807 5807
5833 5833 5833 5833 5833 5833 5832 5832 5831 5830 5829 5828 5826 5824 5823 5821 5819 5817 5815 5813 5810 5808 5806 5804 5803 5802 5801 5801 5800 5800 5800 5800 5801 5801 5801 5801 5801 5801 5802 5802 5802 5802 5802
5828 5828 5828 5828 5828 5828 5827 5827 5826 5825 5824 5823 5821 5820 5818 5816 5814 5811 5809 5807 5804 5802 5800 5799 5797 5796 5795 5794 5794 5794 5794 5794 5794 5794 5795 5795 5795 5796 5796 5796 5797 5797 5797
Wind_Speed
1 1 1 2 1 1 1 2 1 2 2 2 3 2 4 4 4 4 4 4 5 5 6 7 7 9 8 7 6 6 5 5 5 5 5 4 4 3 3 3 4 5 5
2 1 2 2 2 1 2 2 2 3 3 3 4 4 4 4 4 5 5 5 6 6 6 7 8 8 9 8 7 6 6 6 6 6 5 5 5 4 4 4 5 5 5
2 2 2 2 2 2 2 2 2 3 3 3 4 4 4 4 4 5 5 6 6 6 6 7 7 8 8 8 7 7 7 7 6 6 7 7 6 5 5 5 5 6 6
3 3 2 2 2 2 2 3 3 3 4 4 4 5 5 5 5 6 6 7 7 7 8 8 8 7 8 8 8 8 8 8 7 7 8 8 7 7 7 7 6 7 7
3 3 3 3 3 3 3 3 4 4 4 5 5 6 6 6 6 7 7 7 7 8 8 8 8 7 8 8 9 9 9 9 9 9 8 8 8 8 8 8 8 8 8
3 4 4 4 3 4 4 4 4 5 5 5 6 6 7 7 8 8 8 8 8 8 9 9 9 8 8 8 9 9 9 9 10 10 10 9 9 9 9 9 9 8 8
4 4 4 4 4 4 5 5 5 5 6 6 7 7 8 8 9 9 9 9 9 9 9 9 9 9 9 9 9 10 10 10 11 10 11 11 10 10 10 10 9 9 9
4 4 4 4 4 4 5 6 6 6 7 7 7 8 8 9 9 9 9 10 10 10 10 9 10 10 10 10 10 11 10 11 11 11 11 11 10 11 11 11 10 10 10
4 4 4 4 4 5 5 6 6 7 7 8 7 8 8 9 10 10 10 11 11 11 10 10 10 10 10 10 11 11 11 11 12 12 12 11 11 10 11 11 11 11 11
4 4 4 4 5 5 5 6 6 7 7 8 8 8 8 9 10 10 11 11 11 11 11 11 11 11 11 10 11 12 12 12 12 13 12 12 11 10 11 11 11 10 10
5 5 5 5 5 5 6 6 7 7 8 8 8 8 9 9 10 10 11 11 11 11 11 11 11 11 11 11 12 12 12 12 12 12 12 12 12 12 12 12 11 11 10
6 6 6 5 6 6 7 7 7 8 8 8 8 8 9 9 9 10 10 10 11 11 11 11 11 11 12 12 12 12 12 12 13 13 13 13 12 13 12 12 12 12 11
6 7 7 7 7 7 8 8 8 8 8 8 8 9 9 10 10 10 10 10 11 11 11 11 11 12 12 12 12 12 12 13 14 13 13 13 13 13 12 13 13 12 12
7 7 8 8 9 9 9 9 9 9 9 9 9 10 10 11 11 11 11 11 11 12 12 12 12 12 12 12 12 13 13 13 13 13 13 13 13 13 13 13 13 13 13
8 9 9 9 10 10 10 10 10 9 9 10 11 10 10 11 11 11 11 12 12 13 13 13 13 12 12 12 13 13 13 13 14 14 14 14 13 13 13 13 13 14 14
9 10 10 10 11 11 11 11 10 10 10 10 10 10 11 11 11 12 12 12 13 14 14 14 14 14 14 13 14 14 13 13 14 14 14 14 14 14 14 14 14 14 14
10 10 10 10 11 10 10 11 11 10 9 10 10 11 11 11 12 12 12 13 13 13 14 15 15 15 15 15 15 15 14 14 14 14 15 15 15 14 14 14 15 15 15
10 10 10 10 10 10 10 10 10 9 9 10 11 11 12 12 13 12 13 13 14 14 14 15 15 16 15 15 15 15 15 15 15 15 15 15 15 15 15 15 15 15 16
10 10 10 10 10 10 10 10 10 10 10 11 12 12 12 13 13 13 14 14 14 15 16 16 16 16 16 16 16 16 16 16 15 15 15 15 15 15 16 16 16 16 16
11 10 10 10 10 10 10 10 10 11 11 12 13 12 13 13 14 14 15 16 16 16 17 17 17 17 17 17 17 17 17 17 16 16 16 16 16 16 16 16 17 17 16
11 11 11 10 10 11 11 11 12 12 12 13 13 13 14 14 15 16 16 17 17 17 18 18 18 18 18 18 17 17 17 17 17 17 16 16 16 16 16 16 16 16 16
12 12 12 11 11 11 11 12 13 13 14 14 15 15 16 16 17 17 18 18 18 19 19 19 19 19 18 18 18 18 18 18 18 17 17 17 17 16 16 16 15 15 16
12 12 12 11 11 11 11 12 13 14 15 16 17 17 17 18 19 19 19 19 19 20 20 20 20 20 20 19 18 18 19 19 19 19 19 19 18 16 16 16 16 16 15
13 13 13 13 12 13 13 13 14 15 16 16 17 18 18 19 20 20 20 20 20 21 21 21 21 21 21 21 20 19 19 20 19 19 20 19 19 18 17 16 16 17 16
13 14 15 15 14 14 15 15 16 16 17 17 19 19 20 20 20 20 21 21 22 22 22 21 21 21 21 21 21 20 20 20 20 19 19 19 19 18 18 17 17 18 18
15 15 15 16 16 16 16 16 16 17 18 18 19 20 20 20 20 21 22 22 22 22 22 22 22 22 22 22 22 22 21 20 20 20 18 18 19 19 19 19 19 18 19
Wind_Direction
181 172 163 148 158 172 205 202 221 239 255 249 245 257 256 254 269 277 273 271 266 260 259 258 260 248 243 243 247 254 262 264 262 266 273 282 287 293 282 274 269 265 265
222 218 200 201 204 215 209 206 235 238 257 260 256 262 264 259 270 279 273 275 276 274 274 273 262 245 242 243 245 252 261 266 263 266 272 277 273 279 276 274 272 271 271
210 229 223 218 210 212 212 226 242 253 268 268 266 269 268 264 265 271 279 284 281 279 279 284 272 251 243 244 251 256 260 267 267 269 274 277 274 274 273 274 275 275 275
229 242 252 225 219 225 235 243 250 260 270 274 272 273 270 269 269 271 279 283 281 281 282 285 280 264 257 256 258 262 265 267 265 268 272 277 275 272 269 272 276 278 277
241 244 254 246 237 239 244 250 251 260 268 275 276 275 274 274 274 277 281 283 282 284 285 286 283 269 268 265 265 266 266 265 263 266 270 273 273 269 270 273 276 277 274
251 251 252 249 249 256 256 257 258 267 269 273 275 275 275 277 278 279 281 284 283 281 282 280 276 269 272 273 271 268 267 266 267 270 272 273 273 269 273 274 276 275 274
253 254 251 253 257 265 269 271 273 274 274 276 280 279 279 281 281 281 282 283 284 283 281 277 274 271 272 274 271 270 268 269 272 273 274 273 273 275 277 273 274 274 277
255 258 260 257 262 269 273 276 277 279 277 279 285 284 284 285 284 283 283 283 285 286 282 277 276 274 272 274 273 272 270 271 272 271 271 272 272 274 275 277 273 272 273
252 259 266 274 278 280 282 285 283 283 284 282 284 286 286 289 288 287 288 287 286 286 282 279 278 277 277 278 279 276 275 274 271 269 267 268 269 272 274 275 277 273 274
253 260 270 285 286 287 290 291 288 289 290 288 285 284 286 287 289 288 288 289 288 286 282 281 281 279 278 279 282 281 280 278 275 272 269 266 268 272 275 278 278 277 273
253 259 267 276 281 285 289 290 288 289 290 290 287 286 285 285 289 290 289 288 286 286 283 283 280 277 277 279 282 282 281 277 275 272 270 270 271 273 275 276 277 276 274
253 259 264 271 277 283 287 290 291 290 290 290 290 291 290 290 291 293 292 291 288 286 283 282 280 278 278 279 281 281 281 279 275 275 275 276 277 275 272 273 274 275 277
258 260 263 271 276 283 285 286 288 289 289 288 289 290 291 292 292 291 291 290 287 287 285 283 282 281 280 278 276 277 277 279 278 279 278 278 278 276 272 270 268 269 273
265 268 267 270 276 282 283 281 281 284 286 285 285 288 290 292 292 290 289 287 286 285 284 287 288 284 281 279 278 278 278 279 278 279 280 278 274 273 271 269 267 265 268
267 269 270 269 272 275 277 278 278 281 284 284 284 286 290 293 293 291 289 288 288 288 288 288 288 285 284 281 280 280 281 281 281 281 279 276 274 272 270 268 267 267 267
267 269 271 274 274 275 275 277 278 279 281 285 286 289 292 294 295 293 289 289 288 289 290 289 288 286 283 282 280 279 278 280 281 281 280 278 274 272 269 268 267 268 266
269 271 272 275 275 276 278 281 281 282 288 290 291 292 292 294 296 295 293 292 290 289 290 289 287 284 281 280 279 279 278 279 280 279 279 278 277 273 271 269 268 270 269
268 271 273 275 274 276 280 283 282 283 288 292 292 291 291 292 294 294 296 296 292 289 290 290 289 286 282 280 279 279 279 279 279 278 277 276 275 273 272 272 271 269 269
267 270 273 277 275 277 280 281 281 283 288 292 293 292 294 295 295 294 296 298 296 293 292 291 290 288 284 280 280 280 279 278 278 278 277 276 274 273 273 273 271 268 268
267 269 273 278 276 277 279 279 282 283 287 290 292 293 295 296 296 295 297 296 294 293 293 292 291 289 285 281 280 279 279 278 276 276 277 276 274 273 274 273 271 267 266
267 270 270 275 276 278 279 279 282 283 285 289 290 291 295 295 296 296 297 296 295 294 294 292 288 287 285 281 279 278 278 278 277 276 276 276 274 272 272 272 272 269 268
266 268 271 272 275 277 277 279 281 284 285 287 289 291 295 296 295 295 296 296 295 295 293 290 287 284 284 281 277 276 277 278 276 274 275 275 273 270 269 268 268 268 268
266 266 267 268 270 274 277 278 281 284 285 288 288 288 291 295 295 294 294 295 296 296 293 289 286 283 281 280 276 274 273 275 275 273 272 272 271 267 266 264 264 265 267
267 268 268 269 269 274 276 277 281 284 286 288 288 289 292 294 294 294 294 295 296 296 293 290 287 286 283 281 277 274 273 272 272 271 270 269 269 265 263 265 264 265 266
267 269 270 272 273 275 275 277 281 283 285 288 289 292 294 294 295 295 295 295 295 294 292 290 288 286 282 280 276 273 272 271 269 269 267 267 266 263 263 264 266 266 265
266 268 270 272 275 278 280 281 283 284 285 288 291 293 294 294 295 296 296 296 294 293 292 292 289 286 284 281 277 271 271 269 267 267 265 264 264 262 261 262 264 266 266